Weather History for Quantico, VA

Change the Weather History Date:

Monday, December 12, 2011

  Actual Average Record
Temperature  
Mean Temperature 36 °F -  
Max Temperature 46 °F 46 °F 66 °F (2007)
Min Temperature 27 °F 31 °F 23 °F (2013)
Degree Days  
Heating Degree Days 28    
Moisture  
Dew Point 26 °F    
Average Humidity 70    
Maximum Humidity 79    
Minimum Humidity 47    
Precipitation  
Precipitation 0.00 in - - ()
Sea Level Pressure  
Sea Level Pressure 30.57 in    
Wind  
Wind Speed 6 mph (WNW)    
Max Wind Speed 8 mph    
Max Gust Speed -    
Visibility 10 miles    
Events      
Averages and records for this station are not official NWS values.
T = Trace of Precipitation, MM = Missing Value Source: NWS Daily Summary

Daily Weather History Graph

Daily Weather History Graph

Search for Another Location

Airport:

Trip Planner

Search our weather history database for the weather conditions in past years. The results will help you decide how hot, cold, wet, or windy it might be!

Date:

Astronomy

Dec. 12, 2011 Rise Set
Actual Time 7:17 AM EST 4:48 PM EST
Civil Twilight 6:47 AM EST 5:18 PM EST
Nautical Twilight 6:14 AM EST 5:51 PM EST
Astronomical Twilight 5:42 AM EST 6:23 PM EST
Moon 6:56 PM EST (12/12) 8:47 AM EST (12/12)
Length of Visible Light 10h 30m
Length of Day
9h 31m
Waning Gibbous, 96% of the Moon is Illuminated
Dec 12
Waning Gibbous
Dec 17
Last Quarter
Dec 24
New
Jan 1
First Quarter
Jan 9
Full

Hourly Weather History & Observations

Time (EST) Temp. Windchill Dew Point Humidity Pressure Visibility Wind Dir Wind Speed Gust Speed Precip Events Conditions
12:56 AM 28.9 °F 21.9 °F 21.9 °F 75% 30.64 in 10.0 mi NW 6.9 mph - N/A   Clear
1:56 AM 28.0 °F 20.0 °F 21.0 °F 75% 30.64 in 10.0 mi NW 8.1 mph - N/A   Clear
2:56 AM 27.0 °F 20.5 °F 21.0 °F 78% 30.62 in 10.0 mi NW 5.8 mph - N/A   Clear
3:56 AM 28.0 °F 20.0 °F 21.9 °F 78% 30.63 in 10.0 mi NW 8.1 mph - N/A   Clear
4:56 AM 27.0 °F 19.5 °F 21.0 °F 78% 30.60 in 10.0 mi NW 6.9 mph - N/A   Clear
5:56 AM 27.0 °F 19.5 °F 21.0 °F 78% 30.60 in 10.0 mi NW 6.9 mph - N/A   Clear
6:56 AM 28.0 °F 20.8 °F 21.0 °F 75% 30.60 in 10.0 mi NW 6.9 mph - N/A   Scattered Clouds
7:56 AM 28.0 °F 20.0 °F 21.9 °F 78% 30.60 in 10.0 mi NW 8.1 mph - N/A   Scattered Clouds
8:56 AM 32.0 °F 26.4 °F 24.1 °F 73% 30.62 in 10.0 mi NW 5.8 mph - N/A   Scattered Clouds
9:56 AM 39.0 °F - 27.0 °F 62% 30.62 in 10.0 mi Calm Calm - N/A   Scattered Clouds
10:56 AM 41.0 °F - 28.0 °F 60% 30.62 in 10.0 mi Calm Calm - N/A   Mostly Cloudy
11:56 AM 42.1 °F - 28.0 °F 58% 30.60 in 10.0 mi Calm Calm - N/A   Mostly Cloudy
12:56 PM 44.1 °F 41.5 °F 25.0 °F 47% 30.57 in 10.0 mi South 4.6 mph - N/A   Mostly Cloudy
1:56 PM 46.0 °F 43.1 °F 30.0 °F 54% 30.54 in 10.0 mi South 5.8 mph - N/A   Mostly Cloudy
2:56 PM 46.0 °F 44.8 °F 30.0 °F 54% 30.51 in 10.0 mi South 3.5 mph - N/A   Mostly Cloudy
3:56 PM 45.0 °F 42.6 °F 32.0 °F 60% 30.51 in 10.0 mi South 4.6 mph - N/A   Mostly Cloudy
4:56 PM 45.0 °F - 32.0 °F 60% 30.50 in 10.0 mi Calm Calm - N/A   Mostly Cloudy
5:56 PM 41.0 °F 37.1 °F 30.9 °F 67% 30.50 in 10.0 mi NW 5.8 mph - N/A   Clear
6:56 PM 39.0 °F 36.8 °F 30.0 °F 70% 30.51 in 10.0 mi NW 3.5 mph - N/A   Clear
7:56 PM 37.0 °F 31.6 °F 30.9 °F 79% 30.51 in 10.0 mi WNW 6.9 mph - N/A   Clear
8:56 PM 36.0 °F 30.3 °F 30.0 °F 79% 30.50 in 10.0 mi WNW 6.9 mph - N/A   Clear
9:56 PM 34.0 °F 28.0 °F 28.0 °F 79% 30.51 in 10.0 mi NW 6.9 mph - N/A   Clear
10:56 PM 33.1 °F 26.9 °F 27.0 °F 78% 30.51 in 10.0 mi NW 6.9 mph - N/A   Clear
11:56 PM 32.0 °F 24.8 °F 26.1 °F 79% 30.50 in 10.0 mi NW 8.1 mph - N/A   Clear